Year,Month,Day,Hour,Minute,Value (Times are PST for temperature in C)
2016,01,18,00,01,8.60
2016,01,18,00,02,8.60
2016,01,18,00,03,8.60
2016,01,18,00,04,8.70
2016,01,18,00,06,8.70
2016,01,18,00,07,8.70
2016,01,18,00,09,8.60
2016,01,18,00,11,8.60
2016,01,18,00,12,8.70
2016,01,18,00,13,8.70
2016,01,18,00,14,8.70
2016,01,18,00,16,8.70
2016,01,18,00,17,8.70
2016,01,18,00,18,8.70
2016,01,18,00,19,8.70
2016,01,18,00,21,8.70
2016,01,18,00,22,8.70
2016,01,18,00,23,8.70
2016,01,18,00,24,8.70
2016,01,18,00,25,8.70
2016,01,18,00,26,8.70
2016,01,18,00,27,8.70
2016,01,18,00,28,8.70
2016,01,18,00,29,8.70
2016,01,18,00,30,8.70
2016,01,18,00,31,8.70
2016,01,18,00,32,8.70
2016,01,18,00,33,8.70
2016,01,18,00,34,8.70
2016,01,18,00,35,8.70
2016,01,18,00,36,8.70
2016,01,18,00,37,8.70
2016,01,18,00,38,8.70
2016,01,18,00,39,8.70
2016,01,18,00,40,8.70
2016,01,18,00,41,8.70
2016,01,18,00,42,8.70
2016,01,18,00,43,8.70
2016,01,18,00,44,8.70
2016,01,18,00,45,8.70
2016,01,18,00,46,8.70
2016,01,18,00,47,8.70
2016,01,18,00,48,8.70
2016,01,18,00,49,8.70
2016,01,18,00,50,8.70
2016,01,18,00,51,8.70
2016,01,18,00,52,8.70
2016,01,18,00,53,8.70
2016,01,18,00,54,8.70
2016,01,18,00,56,8.70
2016,01,18,00,57,8.70
2016,01,18,00,58,8.70
2016,01,18,00,59,8.70
2016,01,18,01,01,8.70
2016,01,18,01,02,8.70
2016,01,18,01,03,8.70
2016,01,18,01,04,8.70
2016,01,18,01,06,8.70
2016,01,18,01,07,8.70
2016,01,18,01,08,8.70
2016,01,18,01,09,8.70
2016,01,18,01,11,8.70
2016,01,18,01,12,8.70
2016,01,18,01,13,8.70
2016,01,18,01,14,8.70
2016,01,18,01,15,8.70
2016,01,18,01,16,8.70
2016,01,18,01,17,8.70
2016,01,18,01,18,8.70
2016,01,18,01,19,8.70
2016,01,18,01,20,8.70
2016,01,18,01,21,8.70
2016,01,18,01,22,8.70
2016,01,18,01,23,8.70
2016,01,18,01,24,8.70
2016,01,18,01,26,8.70
2016,01,18,01,27,8.60
2016,01,18,01,28,8.60
2016,01,18,01,29,8.60
2016,01,18,01,31,8.60
2016,01,18,01,32,8.50
2016,01,18,01,33,8.50
2016,01,18,01,34,8.50
2016,01,18,01,36,8.50
2016,01,18,01,37,8.50
2016,01,18,01,38,8.50
2016,01,18,01,39,8.40
2016,01,18,01,41,8.40
2016,01,18,01,42,8.40
2016,01,18,01,43,8.40
2016,01,18,01,44,8.40
2016,01,18,01,46,8.40
2016,01,18,01,47,8.40
2016,01,18,01,48,8.40
2016,01,18,01,49,8.40
2016,01,18,01,50,8.40
2016,01,18,01,51,8.40
2016,01,18,01,52,8.40
2016,01,18,01,53,8.40
2016,01,18,01,54,8.40
2016,01,18,01,55,8.40
2016,01,18,01,56,8.40
2016,01,18,01,57,8.40
2016,01,18,01,58,8.40
2016,01,18,01,59,8.40
2016,01,18,02,00,8.40
2016,01,18,02,01,8.50
2016,01,18,02,02,8.50
2016,01,18,02,03,8.50
2016,01,18,02,04,8.50
2016,01,18,02,05,8.50
2016,01,18,02,06,8.50
2016,01,18,02,07,8.50
2016,01,18,02,08,8.50
2016,01,18,02,09,8.50
2016,01,18,02,11,8.50
2016,01,18,02,12,8.50
2016,01,18,02,13,8.50
2016,01,18,02,14,8.50
2016,01,18,02,16,8.50
2016,01,18,02,17,8.50
2016,01,18,02,18,8.50
2016,01,18,02,19,8.50
2016,01,18,02,21,8.50
2016,01,18,02,22,8.50
2016,01,18,02,23,8.40
2016,01,18,02,24,8.40
2016,01,18,02,26,8.40
2016,01,18,02,27,8.40
2016,01,18,02,28,8.40
2016,01,18,02,29,8.40
2016,01,18,02,31,8.30
2016,01,18,02,32,8.30
2016,01,18,02,33,8.30
2016,01,18,02,34,8.30
2016,01,18,02,36,8.30
2016,01,18,03,25,8.10
2016,01,18,03,26,8.10
2016,01,18,03,27,8.10
2016,01,18,03,28,8.10
2016,01,18,03,29,8.10
2016,01,18,03,30,8.10
2016,01,18,03,31,8.10
2016,01,18,03,32,8.10
2016,01,18,03,33,8.10
2016,01,18,03,34,8.10
2016,01,18,03,35,8.10
2016,01,18,03,36,8.10
2016,01,18,03,37,8.10
2016,01,18,03,38,8.10
2016,01,18,03,39,8.10
2016,01,18,03,40,8.10
2016,01,18,03,41,8.10
2016,01,18,03,42,8.10
2016,01,18,03,43,8.10
2016,01,18,03,44,8.10
2016,01,18,03,45,8.10
2016,01,18,03,46,8.00
2016,01,18,03,48,8.00
2016,01,18,03,49,8.00
2016,01,18,03,51,8.00
2016,01,18,03,52,8.00
2016,01,18,03,54,7.90
2016,01,18,03,56,7.90
2016,01,18,03,57,7.90
2016,01,18,03,58,7.90
2016,01,18,03,59,7.90
2016,01,18,04,01,7.80
2016,01,18,04,02,7.80
2016,01,18,04,03,7.80
2016,01,18,04,04,7.80
2016,01,18,04,06,7.80
2016,01,18,04,07,7.80
2016,01,18,04,08,7.90
2016,01,18,04,09,7.90
2016,01,18,04,11,7.90
2016,01,18,04,12,7.90
2016,01,18,04,13,7.90
2016,01,18,04,14,8.00
2016,01,18,04,15,8.00
2016,01,18,04,16,8.10
2016,01,18,04,17,8.10
2016,01,18,04,18,8.10
2016,01,18,04,19,8.10
2016,01,18,04,20,8.10
2016,01,18,04,21,8.10
2016,01,18,04,22,8.10
2016,01,18,04,23,8.00
2016,01,18,04,24,8.00
2016,01,18,04,25,8.00
2016,01,18,04,26,7.90
2016,01,18,04,27,7.90
2016,01,18,04,28,7.90
2016,01,18,04,29,7.90
2016,01,18,04,30,7.90
2016,01,18,04,31,7.90
2016,01,18,04,32,7.90
2016,01,18,04,33,7.90
2016,01,18,04,34,7.90
2016,01,18,04,35,7.90
2016,01,18,04,36,7.90
2016,01,18,04,37,7.90
2016,01,18,04,38,7.90
2016,01,18,04,39,7.90
2016,01,18,04,40,7.90
2016,01,18,04,41,7.90
2016,01,18,04,42,7.90
2016,01,18,04,43,7.90
2016,01,18,04,44,7.90
2016,01,18,04,45,7.90
2016,01,18,04,46,7.90
2016,01,18,04,47,7.80
2016,01,18,04,48,7.80
2016,01,18,04,49,7.80
2016,01,18,04,50,7.80
2016,01,18,04,51,7.80
2016,01,18,04,52,7.80
2016,01,18,04,53,7.80
2016,01,18,04,54,7.80
2016,01,18,04,55,7.80
2016,01,18,04,56,7.80
2016,01,18,04,57,7.80
2016,01,18,04,58,7.80
2016,01,18,04,59,7.80
2016,01,18,05,00,7.80
2016,01,18,05,02,7.80
2016,01,18,05,04,7.80
2016,01,18,05,06,7.80
2016,01,18,05,07,7.80
2016,01,18,05,08,7.80
2016,01,18,05,09,7.80
2016,01,18,05,11,7.80
2016,01,18,05,12,7.90
2016,01,18,05,13,7.90
2016,01,18,05,14,7.90
2016,01,18,05,16,7.90
2016,01,18,05,17,7.90
2016,01,18,05,18,7.90
2016,01,18,05,19,7.90
2016,01,18,05,21,7.90
2016,01,18,05,22,7.90
2016,01,18,05,23,7.90
2016,01,18,05,24,7.90
2016,01,18,05,26,7.90
2016,01,18,05,27,7.90
2016,01,18,05,28,7.90
2016,01,18,05,29,7.90
2016,01,18,05,31,7.90
2016,01,18,05,32,7.90
2016,01,18,05,33,7.90
2016,01,18,05,34,7.90
2016,01,18,05,36,7.90
2016,01,18,05,37,7.90
2016,01,18,05,38,7.90
2016,01,18,05,39,7.90
2016,01,18,05,41,7.90
2016,01,18,05,42,7.90
2016,01,18,05,43,7.90
2016,01,18,05,44,8.00
2016,01,18,05,46,8.00
2016,01,18,07,25,7.80
2016,01,18,07,26,7.80
2016,01,18,07,27,7.80
2016,01,18,07,28,7.80
2016,01,18,07,29,7.80
2016,01,18,07,30,7.80
2016,01,18,07,31,7.80
2016,01,18,07,32,7.80
2016,01,18,07,33,7.70
2016,01,18,07,34,7.70
2016,01,18,07,35,7.70
2016,01,18,07,36,7.70
2016,01,18,07,37,7.70
2016,01,18,07,38,7.70
2016,01,18,07,39,7.70
2016,01,18,07,40,7.70
2016,01,18,07,41,7.70
2016,01,18,07,42,7.70
2016,01,18,07,43,7.70
2016,01,18,07,44,7.70
2016,01,18,07,45,7.70
2016,01,18,07,46,7.70
2016,01,18,07,47,7.80
2016,01,18,07,48,7.80
2016,01,18,07,49,7.70
2016,01,18,07,50,7.80
2016,01,18,07,51,7.80
2016,01,18,07,52,7.80
2016,01,18,07,53,7.80
2016,01,18,07,54,7.70
2016,01,18,07,55,7.70
2016,01,18,07,56,7.80
2016,01,18,07,57,7.80
2016,01,18,07,58,7.80
2016,01,18,07,59,7.80
2016,01,18,08,00,7.80
2016,01,18,08,01,7.80
2016,01,18,08,02,7.80
2016,01,18,08,04,7.80
2016,01,18,08,05,7.80
2016,01,18,08,07,7.80
2016,01,18,08,08,7.90
2016,01,18,08,09,7.90
2016,01,18,08,11,7.90
2016,01,18,08,12,7.90
2016,01,18,08,13,8.00
2016,01,18,08,14,8.00
2016,01,18,08,16,8.00
2016,01,18,08,17,8.00
2016,01,18,08,18,8.00
2016,01,18,08,19,8.00
2016,01,18,08,21,8.10
2016,01,18,08,22,8.10
2016,01,18,08,23,8.20
2016,01,18,08,24,8.20
2016,01,18,08,26,8.20
2016,01,18,08,27,8.20
2016,01,18,08,28,8.20
2016,01,18,08,29,8.30
2016,01,18,08,31,8.30
2016,01,18,08,32,8.30
2016,01,18,08,33,8.30
2016,01,18,08,34,8.30
2016,01,18,08,36,8.30
2016,01,18,08,37,8.30
2016,01,18,08,38,8.40
2016,01,18,08,39,8.40
2016,01,18,08,41,8.40
2016,01,18,08,42,8.40
2016,01,18,08,43,8.30
2016,01,18,08,44,8.30
2016,01,18,08,46,8.20
2016,01,18,08,47,8.20
2016,01,18,08,48,8.20
2016,01,18,08,49,8.20
2016,01,18,08,51,8.20
2016,01,18,08,52,8.20
2016,01,18,08,53,8.20
2016,01,18,08,54,8.20
2016,01,18,08,56,8.30
2016,01,18,08,57,8.30
2016,01,18,08,58,8.30
2016,01,18,08,59,8.30
2016,01,18,09,01,8.30
2016,01,18,09,02,8.30
2016,01,18,09,03,8.30
2016,01,18,09,04,8.30
2016,01,18,09,06,8.30
2016,01,18,09,07,8.30
2016,01,18,09,08,8.30
2016,01,18,09,09,8.30
2016,01,18,09,11,8.30
2016,01,18,09,12,8.30
2016,01,18,09,13,8.30
2016,01,18,09,14,8.30
2016,01,18,09,15,8.30
2016,01,18,09,16,8.30
2016,01,18,09,17,8.40
2016,01,18,09,18,8.40
2016,01,18,09,19,8.40
2016,01,18,09,20,8.40
2016,01,18,09,21,8.40
2016,01,18,09,22,8.40
2016,01,18,09,23,8.40
2016,01,18,09,24,8.30
2016,01,18,09,25,8.30
2016,01,18,09,26,8.30
2016,01,18,09,27,8.30
2016,01,18,09,28,8.30
2016,01,18,09,29,8.30
2016,01,18,09,30,8.30
2016,01,18,09,31,8.30
2016,01,18,09,32,8.30
2016,01,18,09,33,8.30
2016,01,18,09,34,8.30
2016,01,18,09,35,8.30
2016,01,18,09,36,8.30
2016,01,18,09,37,8.30
2016,01,18,09,38,8.30
2016,01,18,09,39,8.30
2016,01,18,09,40,8.40
2016,01,18,09,41,8.40
2016,01,18,09,42,8.40
2016,01,18,09,43,8.40
2016,01,18,09,44,8.50
2016,01,18,09,45,8.50
2016,01,18,09,46,8.60
2016,01,18,09,47,8.60
2016,01,18,09,48,8.70
2016,01,18,09,49,8.70
2016,01,18,09,50,8.70
2016,01,18,09,51,8.60
2016,01,18,09,52,8.60
2016,01,18,09,53,8.60
2016,01,18,09,54,8.60
2016,01,18,09,55,8.70
2016,01,18,09,56,8.70
2016,01,18,09,57,8.70
2016,01,18,09,58,8.70
2016,01,18,09,59,8.70
2016,01,18,10,00,8.70
2016,01,18,10,01,8.70
2016,01,18,10,02,8.70
2016,01,18,10,03,8.70
2016,01,18,10,04,8.70
2016,01,18,10,05,8.70
2016,01,18,10,06,8.70
2016,01,18,10,07,8.70
2016,01,18,10,08,8.70
2016,01,18,10,09,8.70
2016,01,18,10,10,8.70
2016,01,18,10,11,8.70
2016,01,18,10,12,8.70
2016,01,18,10,13,8.70
2016,01,18,10,14,8.70
2016,01,18,10,15,8.70
2016,01,18,10,16,8.70
2016,01,18,10,17,8.70
2016,01,18,10,18,8.70
2016,01,18,10,19,8.70
2016,01,18,10,20,8.70
2016,01,18,10,21,8.70
2016,01,18,10,23,8.70
2016,01,18,10,24,8.70
2016,01,18,10,26,8.70
2016,01,18,10,27,8.70
2016,01,18,10,28,8.70
2016,01,18,10,29,8.70
2016,01,18,10,31,8.70
2016,01,18,10,32,8.70
2016,01,18,10,33,8.70
2016,01,18,10,34,8.70
2016,01,18,10,36,8.70
2016,01,18,10,37,8.70
2016,01,18,10,38,8.70
2016,01,18,10,39,8.70
2016,01,18,10,41,8.60
2016,01,18,10,42,8.60
2016,01,18,10,43,8.60
2016,01,18,10,44,8.60
2016,01,18,10,46,8.60
2016,01,18,10,47,8.60
2016,01,18,10,48,8.60
2016,01,18,10,49,8.60
2016,01,18,10,51,8.60
2016,01,18,10,52,8.60
2016,01,18,10,53,8.60
2016,01,18,10,54,8.60
2016,01,18,10,56,8.70
2016,01,18,10,57,8.70
2016,01,18,10,58,8.70
2016,01,18,10,59,8.70
2016,01,18,11,01,8.70
2016,01,18,11,02,8.70
2016,01,18,11,03,8.70
2016,01,18,11,04,8.80
2016,01,18,11,05,8.80
2016,01,18,11,06,8.80
2016,01,18,11,07,8.80
2016,01,18,11,08,8.80
2016,01,18,11,09,8.90
2016,01,18,11,10,8.90
2016,01,18,11,11,8.90
2016,01,18,11,12,8.90
2016,01,18,11,13,8.90
2016,01,18,11,14,8.90
2016,01,18,11,15,8.90
2016,01,18,11,16,8.90
2016,01,18,11,17,8.90
2016,01,18,11,18,8.90
2016,01,18,11,19,8.90
2016,01,18,11,20,8.90
2016,01,18,11,21,9.00
2016,01,18,11,22,9.00
2016,01,18,11,23,9.00
2016,01,18,11,24,9.00
2016,01,18,11,25,9.00
2016,01,18,11,26,9.00
2016,01,18,11,27,9.00
2016,01,18,11,28,9.00
2016,01,18,11,29,9.00
2016,01,18,11,30,9.00
2016,01,18,11,31,8.90
2016,01,18,11,32,8.90
2016,01,18,11,33,8.90
2016,01,18,11,34,8.90
2016,01,18,11,35,8.90
2016,01,18,11,36,8.90
2016,01,18,11,37,8.90
2016,01,18,11,38,8.90
2016,01,18,11,39,8.90
2016,01,18,11,40,8.90
2016,01,18,11,41,8.90
2016,01,18,11,42,8.90
2016,01,18,11,43,8.90
2016,01,18,11,44,9.00
2016,01,18,11,45,9.00
2016,01,18,11,47,9.00
2016,01,18,11,48,9.00
2016,01,18,11,49,9.00
2016,01,18,11,51,9.00
2016,01,18,11,52,9.00
2016,01,18,11,53,9.00
2016,01,18,11,54,9.00
2016,01,18,11,56,9.00
2016,01,18,11,57,9.10
2016,01,18,11,58,9.00
2016,01,18,11,59,9.10
2016,01,18,12,01,9.00
2016,01,18,12,02,9.00
2016,01,18,12,03,9.00
2016,01,18,12,04,9.00
2016,01,18,12,06,9.00
2016,01,18,12,07,9.00
2016,01,18,12,08,9.00
2016,01,18,12,09,9.00
2016,01,18,12,11,9.00
2016,01,18,12,12,9.00
2016,01,18,12,13,9.10
2016,01,18,12,14,9.10
2016,01,18,12,16,9.10
2016,01,18,12,17,9.10
2016,01,18,12,18,9.10
2016,01,18,12,19,9.00
2016,01,18,12,21,9.00
2016,01,18,12,22,9.00
2016,01,18,12,23,9.00
2016,01,18,12,24,9.00
2016,01,18,12,26,8.90
2016,01,18,12,27,8.90
2016,01,18,12,28,8.90
2016,01,18,12,29,8.90
2016,01,18,12,30,8.80
2016,01,18,12,31,8.80
2016,01,18,12,32,8.80
2016,01,18,12,33,8.80
2016,01,18,12,34,8.70
2016,01,18,12,35,8.70
2016,01,18,12,36,8.70
2016,01,18,12,37,8.70
2016,01,18,12,38,8.70
2016,01,18,12,39,8.70
2016,01,18,12,40,8.70
2016,01,18,12,41,8.70
2016,01,18,12,42,8.70
2016,01,18,12,43,8.70
2016,01,18,12,44,8.70
2016,01,18,12,45,8.70
2016,01,18,12,46,8.70
2016,01,18,12,47,8.70
2016,01,18,12,48,8.70
2016,01,18,12,49,8.60
2016,01,18,12,50,8.60
2016,01,18,12,51,8.50
2016,01,18,12,52,8.50
2016,01,18,12,53,8.50
2016,01,18,12,54,8.50
2016,01,18,12,55,8.40
2016,01,18,12,56,8.40
2016,01,18,12,57,8.40
2016,01,18,12,58,8.40
2016,01,18,12,59,8.40
2016,01,18,13,00,8.40
2016,01,18,13,01,8.40
2016,01,18,13,02,8.40
2016,01,18,13,03,8.40
2016,01,18,13,04,8.40
2016,01,18,13,05,8.40
2016,01,18,13,06,8.40
2016,01,18,13,07,8.40
2016,01,18,13,08,8.40
2016,01,18,13,09,8.40
2016,01,18,13,11,8.40
2016,01,18,13,12,8.40
2016,01,18,13,13,8.40
2016,01,18,13,14,8.40
2016,01,18,13,16,8.40
2016,01,18,13,17,8.40
2016,01,18,13,18,8.40
2016,01,18,13,19,8.40
2016,01,18,13,21,8.40
2016,01,18,13,22,8.40
2016,01,18,13,23,8.40
2016,01,18,13,24,8.40
2016,01,18,13,26,8.40
2016,01,18,13,27,8.40
2016,01,18,13,28,8.40
2016,01,18,13,29,8.40
2016,01,18,13,31,8.40
2016,01,18,13,32,8.40
2016,01,18,13,33,8.40
2016,01,18,13,34,8.40
2016,01,18,13,36,8.40
2016,01,18,13,37,8.40
2016,01,18,13,38,8.40
2016,01,18,13,39,8.40
2016,01,18,13,41,8.40
2016,01,18,13,42,8.40
2016,01,18,13,43,8.40
2016,01,18,13,44,8.40
2016,01,18,13,46,8.40
2016,01,18,13,47,8.40
2016,01,18,13,48,8.40
2016,01,18,13,49,8.40
2016,01,18,13,51,8.40
2016,01,18,13,52,8.40
2016,01,18,13,53,8.40
2016,01,18,13,54,8.40
2016,01,18,13,55,8.40
2016,01,18,13,56,8.40
2016,01,18,13,57,8.40
2016,01,18,13,58,8.40
2016,01,18,13,59,8.50
2016,01,18,14,00,8.50
2016,01,18,14,01,8.50
2016,01,18,14,02,8.50
2016,01,18,14,03,8.50
2016,01,18,14,04,8.50
2016,01,18,14,05,8.50
2016,01,18,14,06,8.50
2016,01,18,14,07,8.50
2016,01,18,14,08,8.50
2016,01,18,14,09,8.40
2016,01,18,14,10,8.40
2016,01,18,14,11,8.40
2016,01,18,14,12,8.40
2016,01,18,14,13,8.40
2016,01,18,14,14,8.40
2016,01,18,14,15,8.40
2016,01,18,14,16,8.40
2016,01,18,14,17,8.40
2016,01,18,14,18,8.40
2016,01,18,14,19,8.40
2016,01,18,14,20,8.40
2016,01,18,14,21,8.40
2016,01,18,14,22,8.40
2016,01,18,14,23,8.40
2016,01,18,14,24,8.40
2016,01,18,14,25,8.40
2016,01,18,14,26,8.40
2016,01,18,14,27,8.40
2016,01,18,14,28,8.40
2016,01,18,14,29,8.40
2016,01,18,14,30,8.40
2016,01,18,14,31,8.40
2016,01,18,14,32,8.40
2016,01,18,14,33,8.40
2016,01,18,14,34,8.40
2016,01,18,14,35,8.30
2016,01,18,14,36,8.30
2016,01,18,14,37,8.30
2016,01,18,14,38,8.30
2016,01,18,14,39,8.30
2016,01,18,14,40,8.30
2016,01,18,14,41,8.30
2016,01,18,14,42,8.30
2016,01,18,14,43,8.30
2016,01,18,14,44,8.30
2016,01,18,14,45,8.30
2016,01,18,14,46,8.30
2016,01,18,14,47,8.30
2016,01,18,14,48,8.30
2016,01,18,14,49,8.30
2016,01,18,14,50,8.30
2016,01,18,14,51,8.20
2016,01,18,14,53,8.20
2016,01,18,14,54,8.20
2016,01,18,14,56,8.20
2016,01,18,14,57,8.20
2016,01,18,14,58,8.20
2016,01,18,14,59,8.20
2016,01,18,15,01,8.20
2016,01,18,15,02,8.20
2016,01,18,15,03,8.20
2016,01,18,15,04,8.20
2016,01,18,15,06,8.20
2016,01,18,15,07,8.20
2016,01,18,15,08,8.20
2016,01,18,15,09,8.20
2016,01,18,15,11,8.20
2016,01,18,15,12,8.20
2016,01,18,15,13,8.20
2016,01,18,15,14,8.20
2016,01,18,15,16,8.20
2016,01,18,15,17,8.20
2016,01,18,15,18,8.10
2016,01,18,15,19,8.10
2016,01,18,15,21,8.10
2016,01,18,15,22,8.10
2016,01,18,15,23,8.10
2016,01,18,15,24,8.20
2016,01,18,15,26,8.20
2016,01,18,15,27,8.20
2016,01,18,15,28,8.20
2016,01,18,15,29,8.30
2016,01,18,15,31,8.30
2016,01,18,15,32,8.30
2016,01,18,15,33,8.40
2016,01,18,15,34,8.40
2016,01,18,15,35,8.40
2016,01,18,15,36,8.40
2016,01,18,15,37,8.50
2016,01,18,15,38,8.50
2016,01,18,15,39,8.60
2016,01,18,15,40,8.70
2016,01,18,15,41,8.70
2016,01,18,15,42,8.80
2016,01,18,15,43,8.90
2016,01,18,15,44,9.00
2016,01,18,15,45,9.10
2016,01,18,15,46,9.20
2016,01,18,15,47,9.20
2016,01,18,15,48,9.20
2016,01,18,15,49,9.30
2016,01,18,15,51,9.30
2016,01,18,15,52,9.40
2016,01,18,15,53,9.40
2016,01,18,15,54,9.40
2016,01,18,15,55,9.40
2016,01,18,15,56,9.50
2016,01,18,15,57,9.50
2016,01,18,15,58,9.50
2016,01,18,15,59,9.50
2016,01,18,16,00,9.50
2016,01,18,16,01,9.50
2016,01,18,16,02,9.50
2016,01,18,16,03,9.50
2016,01,18,16,04,9.50
2016,01,18,16,05,9.50
2016,01,18,16,06,9.50
2016,01,18,16,07,9.50
2016,01,18,16,08,9.60
2016,01,18,16,09,9.60
2016,01,18,16,10,9.60
2016,01,18,16,11,9.60
2016,01,18,16,12,9.60
2016,01,18,16,13,9.60
2016,01,18,16,14,9.60
2016,01,18,16,15,9.60
2016,01,18,16,16,9.60
2016,01,18,16,17,9.60
2016,01,18,16,18,9.60
2016,01,18,16,19,9.60
2016,01,18,16,20,9.60
2016,01,18,16,21,9.60
2016,01,18,16,22,9.60
2016,01,18,16,23,9.60
2016,01,18,16,24,9.60
2016,01,18,16,25,9.60
2016,01,18,16,26,9.60
2016,01,18,16,27,9.60
2016,01,18,16,28,9.60
2016,01,18,16,29,9.60
2016,01,18,16,30,9.60
2016,01,18,16,31,9.60
2016,01,18,16,32,9.60
2016,01,18,16,33,9.60
2016,01,18,16,34,9.60
2016,01,18,16,35,9.60
2016,01,18,16,36,9.60
2016,01,18,16,37,9.60
2016,01,18,16,38,9.60
2016,01,18,16,39,9.60
2016,01,18,16,40,9.60
2016,01,18,16,42,9.70
2016,01,18,16,44,9.70
2016,01,18,16,46,9.70
2016,01,18,16,47,9.70
2016,01,18,16,48,9.70
2016,01,18,16,49,9.80
2016,01,18,16,51,9.90
2016,01,18,16,52,9.90
2016,01,18,16,53,9.90
2016,01,18,16,54,9.90
2016,01,18,16,56,9.90
2016,01,18,16,57,9.90
2016,01,18,16,58,9.90
2016,01,18,16,59,10.10
2016,01,18,17,01,10.10
2016,01,18,17,02,10.10
2016,01,18,17,03,10.10
2016,01,18,17,04,10.10
2016,01,18,17,06,10.10
2016,01,18,17,07,10.10
2016,01,18,17,08,10.10
2016,01,18,17,09,10.10
2016,01,18,17,11,10.10
2016,01,18,17,12,10.10
2016,01,18,17,13,10.10
2016,01,18,17,14,10.10
2016,01,18,17,16,10.10
2016,01,18,17,17,10.10
2016,01,18,17,18,10.10
2016,01,18,17,19,10.10
2016,01,18,17,21,9.90
2016,01,18,17,22,9.90
2016,01,18,17,23,9.90
2016,01,18,17,24,9.90
2016,01,18,17,26,9.90
2016,01,18,17,27,9.90
2016,01,18,17,28,9.90
2016,01,18,17,29,9.90
2016,01,18,17,31,9.90
2016,01,18,17,32,9.90
2016,01,18,17,33,9.90
2016,01,18,17,34,9.90
2016,01,18,17,36,9.90
2016,01,18,17,37,9.90
2016,01,18,17,38,9.90
2016,01,18,17,39,9.90
2016,01,18,17,41,9.90
2016,01,18,17,42,9.90
2016,01,18,17,43,9.90
2016,01,18,17,44,9.90
2016,01,18,17,45,9.90
2016,01,18,17,46,9.90
2016,01,18,17,47,9.90
2016,01,18,17,48,9.90
2016,01,18,17,49,9.90
2016,01,18,17,50,9.90
2016,01,18,17,51,9.90
2016,01,18,17,52,9.90
2016,01,18,17,53,9.90
2016,01,18,17,54,9.90
2016,01,18,17,55,9.90
2016,01,18,17,56,9.90
2016,01,18,17,57,9.80
2016,01,18,17,58,9.80
2016,01,18,17,59,9.80
2016,01,18,18,00,9.80
2016,01,18,18,01,9.80
2016,01,18,18,02,9.80
2016,01,18,18,03,9.80
2016,01,18,18,04,9.80
2016,01,18,18,05,9.70
2016,01,18,18,06,9.70
2016,01,18,18,07,9.70
2016,01,18,18,08,9.70
2016,01,18,18,09,9.70
2016,01,18,18,10,9.70
2016,01,18,18,11,9.70
2016,01,18,18,12,9.70
2016,01,18,18,13,9.70
2016,01,18,18,14,9.70
2016,01,18,18,15,9.70
2016,01,18,18,16,9.70
2016,01,18,18,17,9.70
2016,01,18,18,18,9.70
2016,01,18,18,19,9.70
2016,01,18,18,20,9.70
2016,01,18,18,21,9.70
2016,01,18,18,22,9.70
2016,01,18,18,23,9.70
2016,01,18,18,24,9.80
2016,01,18,18,25,9.80
2016,01,18,18,26,9.80
2016,01,18,18,27,9.90
2016,01,18,18,28,9.90
2016,01,18,18,29,9.90
2016,01,18,18,31,9.90
2016,01,18,18,32,10.10
2016,01,18,18,33,10.10
2016,01,18,18,34,10.10
2016,01,18,18,36,10.10
2016,01,18,18,37,10.10
2016,01,18,18,38,10.10
2016,01,18,18,39,10.20
2016,01,18,18,41,10.20
2016,01,18,18,42,10.30
2016,01,18,18,43,10.30
2016,01,18,18,44,10.30
2016,01,18,18,46,10.40
2016,01,18,18,47,10.40
2016,01,18,18,48,10.40
2016,01,18,18,49,10.40
2016,01,18,18,51,10.40
2016,01,18,18,52,10.40
2016,01,18,18,53,10.30
2016,01,18,18,54,10.30
2016,01,18,18,56,10.20
2016,01,18,18,57,10.10
2016,01,18,18,58,10.10
2016,01,18,18,59,10.10
2016,01,18,19,01,10.10
2016,01,18,19,02,9.90
2016,01,18,19,03,9.90
2016,01,18,19,04,9.90
2016,01,18,19,06,9.90
2016,01,18,19,07,9.80
2016,01,18,19,08,9.80
2016,01,18,19,09,9.80
2016,01,18,19,11,9.70
2016,01,18,19,12,9.70
2016,01,18,19,13,9.70
2016,01,18,19,14,9.70
2016,01,18,19,16,9.60
2016,01,18,19,17,9.60
2016,01,18,19,18,9.60
2016,01,18,19,19,9.60
2016,01,18,19,21,9.50
2016,01,18,19,22,9.50
2016,01,18,19,23,9.50
2016,01,18,19,24,9.50
2016,01,18,19,25,9.50
2016,01,18,19,26,9.50
2016,01,18,19,27,9.50
2016,01,18,19,28,9.50
2016,01,18,19,29,9.50
2016,01,18,19,30,9.40
2016,01,18,19,31,9.40
2016,01,18,19,32,9.40
2016,01,18,19,33,9.40
2016,01,18,19,34,9.40
2016,01,18,19,35,9.30
2016,01,18,19,36,9.30
2016,01,18,19,37,9.30
2016,01,18,19,38,9.30
2016,01,18,19,39,9.30
2016,01,18,19,40,9.20
2016,01,18,19,41,9.20
2016,01,18,19,42,9.20
2016,01,18,19,43,9.20
2016,01,18,19,44,9.20
2016,01,18,19,45,9.20
2016,01,18,19,46,9.20
2016,01,18,19,47,9.20
2016,01,18,19,48,9.20
2016,01,18,19,49,9.20
2016,01,18,19,50,9.20
2016,01,18,19,51,9.20
2016,01,18,19,52,9.10
2016,01,18,19,53,9.10
2016,01,18,19,54,9.10
2016,01,18,19,55,9.10
2016,01,18,19,56,9.10
2016,01,18,19,57,9.10
2016,01,18,19,58,9.10
2016,01,18,19,59,9.00
2016,01,18,20,00,9.00
2016,01,18,20,01,9.00
2016,01,18,20,02,9.00
2016,01,18,20,03,9.00
2016,01,18,20,04,9.00
2016,01,18,20,05,8.90
2016,01,18,20,06,8.90
2016,01,18,20,07,8.90
2016,01,18,20,08,8.90
2016,01,18,20,09,8.90
2016,01,18,20,10,8.90
2016,01,18,20,11,8.90
2016,01,18,20,12,8.90
2016,01,18,20,14,8.90
2016,01,18,20,16,8.90
2016,01,18,20,17,8.80
2016,01,18,20,18,8.80
2016,01,18,20,19,8.80
2016,01,18,20,21,8.70
2016,01,18,20,22,8.70
2016,01,18,20,23,8.70
2016,01,18,20,24,8.70
2016,01,18,20,26,8.70
2016,01,18,20,27,8.70
2016,01,18,20,28,8.60
2016,01,18,20,29,8.60
2016,01,18,20,31,8.60
2016,01,18,20,32,8.50
2016,01,18,20,33,8.50
2016,01,18,20,34,8.40
2016,01,18,20,36,8.30
2016,01,18,20,37,8.30
2016,01,18,20,38,8.20
2016,01,18,20,39,8.20
2016,01,18,20,41,8.20
2016,01,18,20,42,8.10
2016,01,18,20,43,8.10
2016,01,18,20,44,8.10
2016,01,18,20,46,8.00
2016,01,18,20,47,7.90
2016,01,18,20,48,7.80
2016,01,18,20,49,7.80
2016,01,18,20,51,7.80
2016,01,18,20,52,7.70
2016,01,18,20,53,7.70
2016,01,18,20,54,7.60
2016,01,18,20,56,7.60
2016,01,18,20,57,7.50
2016,01,18,20,58,7.50
2016,01,18,20,59,7.50
2016,01,18,21,01,7.40
2016,01,18,21,02,7.40
2016,01,18,21,03,7.30
2016,01,18,21,04,7.30
2016,01,18,21,06,7.30
2016,01,18,21,07,7.30
2016,01,18,21,08,7.30
2016,01,18,21,09,7.30
2016,01,18,21,10,7.30
2016,01,18,21,11,7.20
2016,01,18,21,12,7.20
2016,01,18,21,13,7.20
2016,01,18,21,14,7.20
2016,01,18,21,15,7.20
2016,01,18,21,16,7.20
2016,01,18,21,17,7.20
2016,01,18,21,18,7.30
2016,01,18,21,19,7.30
2016,01,18,21,20,7.30
2016,01,18,21,21,7.30
2016,01,18,21,22,7.30
2016,01,18,21,23,7.30
2016,01,18,21,24,7.30
2016,01,18,21,25,7.30
2016,01,18,21,26,7.30
2016,01,18,21,27,7.30
2016,01,18,21,28,7.30
2016,01,18,21,29,7.30
2016,01,18,21,30,7.30
2016,01,18,21,31,7.30
2016,01,18,21,32,7.30
2016,01,18,21,33,7.20
2016,01,18,21,34,7.20
2016,01,18,21,35,7.20
2016,01,18,21,36,7.20
2016,01,18,21,37,7.20
2016,01,18,21,38,7.10
2016,01,18,21,39,7.10
2016,01,18,21,40,7.10
2016,01,18,21,42,7.00
2016,01,18,21,43,7.00
2016,01,18,21,44,6.90
2016,01,18,21,45,6.90
2016,01,18,21,47,6.90
2016,01,18,21,48,6.80
2016,01,18,21,49,6.80
2016,01,18,21,51,6.80
2016,01,18,21,52,6.80
2016,01,18,21,53,6.80
2016,01,18,21,54,6.80
2016,01,18,21,56,6.80
2016,01,18,21,57,6.80
2016,01,18,21,58,6.80
2016,01,18,21,59,6.80
2016,01,18,22,01,6.90
2016,01,18,22,02,7.00
2016,01,18,22,03,7.00
2016,01,18,22,04,7.00
2016,01,18,22,06,7.10
2016,01,18,22,07,7.10
2016,01,18,22,08,7.10
2016,01,18,22,09,7.10
2016,01,18,22,11,7.10
2016,01,18,22,12,7.10
2016,01,18,22,13,7.10
2016,01,18,22,14,7.10
2016,01,18,22,15,7.10
2016,01,18,22,16,7.10
2016,01,18,22,17,7.10
2016,01,18,22,18,7.20
2016,01,18,22,19,7.20
2016,01,18,22,21,7.20
2016,01,18,22,22,7.30
2016,01,18,22,23,7.30
2016,01,18,22,24,7.30
2016,01,18,22,25,7.30
2016,01,18,22,26,7.30
2016,01,18,22,27,7.30
2016,01,18,22,28,7.30
2016,01,18,22,29,7.30
2016,01,18,22,30,7.30
2016,01,18,22,31,7.30
2016,01,18,22,32,7.20
2016,01,18,22,33,7.20
2016,01,18,22,34,7.20
2016,01,18,22,35,7.20
2016,01,18,22,36,7.10
2016,01,18,22,37,7.10
2016,01,18,22,38,7.10
2016,01,18,22,39,7.10
2016,01,18,22,40,7.10
2016,01,18,22,41,7.10
2016,01,18,22,42,7.00
2016,01,18,22,43,7.00
2016,01,18,22,44,7.00
2016,01,18,22,46,7.00
2016,01,18,22,47,6.90